Regional Weather Roundup
Issued by NWS

Home | Current Version | Previous Version | Text Only | Print | Product List | Glossary On
Versions: 1 2 3 4 5 6 7 8 9 10 11 12 13 14 15 16 17 18 19 20 21 22 23 24 25 26 27 28
000
ASUS45 KSLC 301210
RWRUT

UTAH REGIONAL WEATHER ROUNDUP
NATIONAL WEATHER SERVICE SALT LAKE CITY UT
600 AM MDT THU OCT 30 2014

UTZ001>011-023>025-301300-

NORTHERN UTAH

CITY           SKY/WX    TMP DP  RH WIND       PRES   REMARKS
BRIGHAM CITY   CLEAR     37  29  71 CALM      30.29S
HILL AFB       CLEAR     44  26  50 E16       30.28S
LOGAN          MOCLDY    31  26  82 CALM      30.30S
OGDEN          CLEAR     43  27  53 S7        30.27S
PROVO AIRPORT  PTCLDY    34  25  69 E3        30.30R
SALT LAKE CITY CLEAR     42  29  59 S3        30.27S
VERNAL         PTCLDY    33  23  66 W5        30.35S WCI  29
WENDOVER       PTCLDY    37  27  65 NE6       30.26S WCI  33
HEBER CITY     CLEAR     25  21  86 CALM      30.35S
WEST JORDAN    CLEAR     43  30  61 SW9       30.28S

$$

UTZ012>022-026-027-301300-

SOUTHERN/CENTRAL UTAH

CITY           SKY/WX    TMP DP  RH WIND       PRES   REMARKS
BLANDING       PTCLDY    38  16  41 N3        30.38S
BRYCE CANYON   PTCLDY    27  17  66 W10       30.39S WCI  17
CEDAR CITY     PTCLDY    30  19  63 CALM      30.27S
DELTA          MOCLDY    39  21  50 NE9       30.27S WCI  32
HANKSVILLE       N/A     30  12  47 CALM      30.33R
MILFORD        PTCLDY    34  18  52 SW5       30.26F WCI  30
MOAB/CYNLANDS  CLEAR     41  15  35 CALM      30.29S
PRICE          PTCLDY    35  17  47 CALM      30.33R
ST GEORGE      SUNNY     46  18  31 CALM      30.20R
KANAB            N/A     39  19  45 N8        30.30S WCI  34

$$

REGIONAL REPORTS     COLORADO/ARIZONA

CITY           SKY/WX    TMP DP  RH WIND       PRES   REMARKS
CRAIG, CO      PTCLDY    25  21  85 CALM      30.39R
GRAND JUNCTION PTCLDY    36  21  54 E5        30.33R WCI  32
RIFLE          CLEAR     30  19  63 S3        30.39R
MONTROSE       CLEAR     33  21  61 S9        30.39R WCI  25
CORTEZ         CLEAR     29  17  61 NE8       30.32S WCI  21
PAGE, AZ       PTCLDY    47  22  37 CALM      30.26R
GRAND CANYON   PTCLDY    29  18  63 NE5       30.33F WCI  24
KINGMAN        CLEAR     49  29  46 E5        30.13S
FLAGSTAFF      PTCLDY    28  21  75 CALM      30.35R

$$

REGIONAL REPORTS    NEVADA/IDAHO/WYOMING

CITY           SKY/WX    TMP DP  RH WIND       PRES   REMARKS
LAS VEGAS, NV  CLEAR     58  23  26 SW8       30.04S
ELY            PTCLDY    29  15  56 S7        30.30F WCI  22
ELKO           MOCLDY    31  20  63 E7        30.24S WCI  24
POCATELLO, ID  CLOUDY    45  32  60 W5        30.28S
BURLEY         MOCLDY    37  32  82 CALM      30.22F
EVANSTON, WY   PTCLDY    39  22  50 SE6       30.37R WCI  35
ROCK SPRINGS   CLEAR     33  26  75 W5        30.37R WCI  29

$$



USA.gov is the U.S. government's official web portal to all federal, state and local government web resources and services.